[[{"header":{"parameterUnit":"m.s-1","parameterCategory":1,"la1":30.2991,"la2":30.254,"lo1":-89.0895,"lo2":-89.0444,"dy":0.0017,"dx":0.0017,"nx":28,"ny":28,"refTime":"2025-06-22T03:00:00:Z","depth":0,"parameterNumber":2,"parameterNumberName":"U-component_of_WINDS"},"data":[0,0,0,0,0,0,0,0,0,0,0,0,0,0,0,0,0,0,0,0,0,0,0,0,0,0,0,0,0,0,0,0,0,0,0,0,0,0,0,0,0,0,0,0,0,0,0,0,0,0,0,0,0,0,0,0,0,0,-1.7505,-1.7506,0,-1.7554,-1.7554,-1.7555,-1.7534,-1.7533,-1.7532,-1.7531,-1.758,-1.7583,-1.7585,0,0,0,0,0,0,0,0,0,0,0,0,0,-1.7396,-1.7398,-1.7505,-1.7506,-1.7506,-1.7553,-1.7554,-1.7555,-1.7534,-1.7533,-1.7531,-1.753,-1.758,-1.7582,-1.7585,0,0,0,0,0,0,0,0,0,0,0,0,0,-1.7444,-1.7398,-1.7505,-1.7502,-1.7502,-1.7553,-1.7554,-1.7555,-1.7535,-1.7533,-1.7531,-1.7529,-1.7579,-1.7582,-1.7586,-1.7643,0,0,-1.7597,-1.7598,0,0,0,0,0,0,0,0,-1.7441,-1.7448,-1.7502,-1.7502,-1.7502,-1.7536,-1.7534,-1.7585,-1.7535,-1.7522,-1.7531,-1.7529,-1.7567,-1.7572,-1.7584,-1.7645,-1.7648,-1.7597,-1.7599,-1.7601,-1.7602,0,0,0,0,0,0,0,-1.7438,-1.7445,-1.7524,-1.7503,-1.7503,-1.7498,-1.7503,-1.7543,-1.7554,-1.7523,-1.7522,-1.7528,-1.7567,-1.7581,-1.7585,-1.7648,-1.7597,-1.76,-1.7602,-1.7604,-1.7759,-1.7761,0,0,0,0,0,0,-1.7434,-1.7443,-1.7523,-1.7526,-1.7467,-1.7502,-1.7507,-1.7527,-1.7553,-1.7556,-1.7529,-1.7527,-1.7576,-1.7581,-1.7587,-1.7656,-1.7601,-1.7604,-1.7606,-1.7757,-1.7759,-1.7761,0,0,0,0,0,0,-1.7432,-1.7442,-1.7521,-1.7484,-1.7494,-1.7505,-1.7528,-1.7529,-1.7543,-1.7558,-1.756,-1.7542,-1.7575,-1.7582,-1.7629,-1.7657,-1.7606,-1.7609,-1.7755,-1.7758,-1.776,-1.7794,0,0,0,0,0,0,-1.7429,-1.7441,-1.7463,-1.7485,-1.7496,-1.7562,-1.753,-1.7531,-1.7549,-1.7546,-1.757,-1.7572,-1.7574,-1.7624,-1.7633,-1.7661,-1.7612,-1.7752,-1.7756,-1.7759,-1.779,-1.7798,-1.7804,0,0,0,0,0,-1.7425,-1.747,-1.7464,-1.7474,-1.7523,-1.7564,-1.757,-1.7571,-1.7552,-1.7574,-1.7583,-1.7572,-1.7653,-1.7629,-1.7639,-1.7669,-1.775,-1.7755,-1.7759,-1.7787,-1.7796,-1.7804,0,0,0,0,0,0,-1.7451,-1.7473,-1.7466,-1.752,-1.754,-1.756,-1.7588,-1.758,-1.7607,-1.7603,-1.7602,-1.7608,-1.7657,-1.7668,-1.7641,-1.7726,-1.7699,-1.7705,-1.7717,-1.7725,-1.7732,-1.7728,-1.7615,0,0,0,0,0,-1.7463,-1.7494,-1.7512,-1.7558,-1.7568,-1.7576,-1.7594,-1.7593,-1.7614,-1.7622,-1.7636,-1.7657,-1.7687,-1.7707,-1.7736,-1.7792,-1.7797,-1.7818,-1.7824,-1.783,-1.7835,-1.7866,-1.7875,-1.7776,-1.7776,-1.7776,0,0,-1.7489,-1.7504,-1.7524,-1.7563,-1.7579,-1.7611,-1.7584,-1.7619,-1.7643,-1.7628,-1.7673,-1.7684,-1.7707,-1.7759,-1.7783,-1.777,-1.7864,-1.7835,-1.784,-1.7842,-1.7872,-1.7881,-1.7889,-1.7779,-1.7778,-1.7778,0,0,-1.7551,-1.7566,-1.7606,-1.7622,-1.7646,-1.7651,-1.7661,-1.7682,-1.7689,-1.7734,-1.7723,-1.7752,-1.7804,-1.7821,-1.7837,-1.7906,-1.7896,-1.7916,-1.7951,-1.7981,-1.7988,-1.7995,-1.802,-1.8029,-1.7921,-1.7921,-1.7921,0,-1.7579,-1.7627,-1.7627,-1.7663,-1.7681,-1.7669,-1.7709,-1.7725,-1.7757,-1.7769,-1.7754,-1.782,-1.7834,-1.789,-1.7907,-1.792,-1.7931,-1.7913,-1.7987,-1.7994,-1.8001,-1.8024,-1.8033,-1.7923,-1.7923,-1.7923,-1.7923,0,-1.7661,-1.7694,-1.7724,-1.7755,-1.7776,-1.7814,-1.782,-1.7841,-1.7838,-1.7845,-1.7892,-1.7909,-1.7941,-1.7954,-1.7952,-1.801,-1.8001,-1.7987,-1.796,-1.8012,-1.8034,-1.8043,-1.7926,-1.7926,-1.7925,-1.7925,0,0,-1.7741,-1.7772,-1.7782,-1.7796,-1.7822,-1.7848,-1.7886,-1.7917,-1.7935,-1.7958,-1.7989,-1.8034,-1.8021,-1.8038,-1.8038,-1.8064,-1.8118,-1.8047,-1.8047,-1.8059,-1.8183,-1.8194,-1.8204,-1.8112,-1.8113,-1.8115,-1.8181,0,-1.7805,-1.7871,-1.7872,-1.7932,-1.7963,-1.7952,-1.7985,-1.8004,-1.8012,-1.8039,-1.8048,-1.8079,-1.806,-1.807,-1.8096,-1.8106,-1.8143,-1.8101,-1.8141,-1.8142,-1.8135,-1.8215,-1.8227,-1.8288,-1.819,-1.8191,-1.8192,0,-1.7888,-1.7914,-1.7977,-1.7998,-1.8011,-1.8041,-1.8069,-1.8096,-1.8118,-1.8122,-1.8141,-1.8137,-1.8176,-1.8147,-1.8201,-1.8172,-1.8189,-1.8196,-1.8199,-1.8202,-1.817,-1.8221,-1.8308,-1.8317,-1.8206,-1.8205,-1.8204,0,-1.794,-1.799,-1.8034,-1.8047,-1.8073,-1.8094,-1.8105,-1.8125,-1.8144,-1.817,-1.8182,-1.8211,-1.8227,-1.825,-1.8254,-1.8233,-1.8308,-1.828,-1.8312,-1.8312,-1.8328,-1.8326,-1.8418,-1.8339,-1.8339,-1.8338,-1.8338,0,-1.8011,-1.8051,-1.8058,-1.8085,-1.8129,-1.813,-1.8173,-1.8183,-1.8201,-1.823,-1.8223,-1.8251,-1.8254,-1.8282,-1.8286,-1.8329,-1.8337,-1.8341,-1.8341,-1.8341,-1.8341,-1.8352,-1.8347,-1.8341,-1.834,-1.834,-1.8339,0,-1.8077,-1.8083,-1.8131,-1.8151,-1.8157,-1.8189,-1.8206,-1.8232,-1.8239,-1.8276,-1.8285,-1.8296,-1.8329,-1.8335,-1.8375,-1.8377,-1.8429,-1.8425,-1.8421,-1.8421,-1.8452,-1.8449,-1.8554,-1.8568,-1.848,-1.8481,-1.8481,0,-1.8122,-1.8151,-1.8175,-1.8194,-1.8207,-1.8237,-1.8256,-1.8259,-1.8279,-1.8306,-1.8329,-1.8361,-1.8387,-1.8441,-1.8453,-1.8483,-1.848,-1.8514,-1.8484,-1.8483,-1.848,-1.8478,-1.8481,-1.852,-1.8521,-1.8522,-1.8522,0,-1.8201,-1.8202,-1.823,-1.8259,-1.8282,-1.8305,-1.8326,-1.8342,-1.8347,-1.8371,-1.8404,-1.8425,-1.8465,-1.8497,-1.8527,-1.8539,-1.8532,-1.8532,-1.8541,-1.8541,-1.8538,-1.854,-1.8437,-1.8529,-1.8529,-1.8528,-1.8528,-1.8528,-1.8257,-1.8283,-1.8304,-1.8335,-1.8351,-1.8372,-1.8397,-1.8407,-1.8435,-1.8468,-1.8468,-1.8505,-1.8526,-1.8566,-1.858,-1.8609,-1.8598,-1.8611,-1.8614,-1.8617,-1.862,-1.8533,-1.8615,-1.8614,-1.8614,-1.8614,-1.8614,0,-1.8336,-1.8348,-1.8377,-1.8407,-1.8432,-1.8422,-1.8446,-1.8467,-1.85,-1.852,-1.8546,-1.8585,-1.8616,-1.863,-1.8661,-1.8682,-1.8679,-1.869,-1.8688,-1.8691,-1.8629,-1.8618,-1.8692,-1.8692,-1.8692,-1.8692,-1.8692,-1.8692,-1.8379,-1.8423,-1.8427,-1.8478,-1.8491,-1.8527,-1.8541,-1.856,-1.8576,-1.862,-1.8646,-1.8655,-1.8673,-1.8705,-1.8734,-1.8737,-1.8749,-1.8761,-1.8763,-1.8704,-1.8696,-1.8688,-1.8678,-1.8764,-1.8764,-1.8823,-1.8824,-1.8824]},{"header":{"parameterUnit":"m.s-1","parameterCategory":1,"la1":30.2991,"la2":30.254,"lo1":-89.0895,"lo2":-89.0444,"dy":0.0017,"dx":0.0017,"nx":28,"ny":28,"refTime":"2025-06-22T03:00:00:Z","depth":0,"parameterNumber":3,"parameterNumberName":"V-component_of_WINDS"},"data":[0,0,0,0,0,0,0,0,0,0,0,0,0,0,0,0,0,0,0,0,0,0,0,0,0,0,0,0,0,0,0,0,0,0,0,0,0,0,0,0,0,0,0,0,0,0,0,0,0,0,0,0,0,0,0,0,0,0,2.3263,2.3263,0,2.3243,2.3243,2.3243,2.3145,2.3143,2.314,2.3138,2.3119,2.3121,2.3123,0,0,0,0,0,0,0,0,0,0,0,0,0,2.3216,2.3218,2.3263,2.3263,2.3262,2.3243,2.3243,2.3243,2.3145,2.3143,2.314,2.3137,2.3119,2.3121,2.3123,0,0,0,0,0,0,0,0,0,0,0,0,0,2.3221,2.3218,2.3263,2.3211,2.3207,2.3243,2.3243,2.3243,2.3146,2.3142,2.3139,2.3136,2.3118,2.3121,2.3123,2.3208,0,0,2.3131,2.3132,0,0,0,0,0,0,0,0,2.3221,2.3223,2.3219,2.3215,2.321,2.3193,2.3219,2.3231,2.3147,2.3169,2.3138,2.3134,2.3147,2.3147,2.3151,2.3207,2.3206,2.3131,2.3132,2.3133,2.3134,0,0,0,0,0,0,0,2.322,2.3223,2.3255,2.3219,2.3214,2.3189,2.3186,2.3221,2.3178,2.3167,2.316,2.3159,2.3143,2.3148,2.3149,2.3206,2.3131,2.3133,2.3135,2.3135,2.3329,2.3332,0,0,0,0,0,0,2.3227,2.3223,2.3256,2.3254,2.3207,2.3193,2.3189,2.3202,2.3177,2.317,2.3162,2.3154,2.3146,2.3147,2.3148,2.3244,2.3133,2.3136,2.3137,2.3325,2.333,2.3333,0,0,0,0,0,0,2.3227,2.3231,2.3256,2.3237,2.3238,2.3198,2.3212,2.3203,2.3208,2.3173,2.3165,2.3175,2.3143,2.3145,2.3193,2.3242,2.3137,2.3139,2.3321,2.3327,2.3332,2.3438,0,0,0,0,0,0,2.3226,2.3232,2.3263,2.3238,2.324,2.3302,2.3215,2.3205,2.3212,2.3203,2.3183,2.3177,2.3141,2.319,2.3196,2.3244,2.3141,2.3316,2.3323,2.333,2.343,2.3446,2.3461,0,0,0,0,0,2.3224,2.3295,2.3266,2.327,2.3279,2.3305,2.3306,2.3262,2.3217,2.3248,2.3226,2.3177,2.3236,2.3196,2.3201,2.3251,2.3313,2.3321,2.3329,2.3423,2.3443,2.346,0,0,0,0,0,0,2.3328,2.3291,2.3258,2.3322,2.3317,2.3288,2.3327,2.3286,2.3294,2.3284,2.3231,2.3227,2.3283,2.3272,2.3227,2.3331,2.3266,2.3276,2.3336,2.3355,2.337,2.337,2.3143,0,0,0,0,0,2.3358,2.3382,2.3349,2.3409,2.3408,2.3368,2.3378,2.3345,2.3338,2.3336,2.3316,2.3312,2.3329,2.3341,2.3355,2.3428,2.3422,2.3465,2.348,2.3493,2.3502,2.3538,2.3556,2.336,2.336,2.336,0,0,2.3421,2.3404,2.3422,2.3429,2.3421,2.3447,2.3367,2.3398,2.3417,2.334,2.3384,2.337,2.3361,2.3422,2.3447,2.3414,2.3555,2.3504,2.3514,2.3516,2.3548,2.3567,2.3583,2.3366,2.3365,2.3364,0,0,2.3548,2.3538,2.3586,2.358,2.3568,2.3541,2.3553,2.353,2.3517,2.356,2.3503,2.3524,2.3556,2.3551,2.3553,2.3677,2.3632,2.3684,2.3763,2.3799,2.3814,2.3827,2.387,2.3886,2.3693,2.3693,2.3693,0,2.3628,2.3664,2.3616,2.365,2.3654,2.3586,2.3633,2.363,2.3624,2.3629,2.3592,2.3628,2.3618,2.3675,2.3705,2.371,2.372,2.3685,2.3816,2.3829,2.384,2.388,2.3897,2.3699,2.3698,2.3698,2.3697,0,2.3761,2.3787,2.3827,2.3822,2.3831,2.3872,2.383,2.3845,2.3811,2.3788,2.3832,2.3817,2.3826,2.3837,2.3805,2.389,2.3869,2.3825,2.3759,2.3866,2.3903,2.3918,2.3708,2.3705,2.3704,2.3702,0,0,2.3953,2.392,2.3935,2.3931,2.3913,2.3933,2.397,2.3978,2.3991,2.399,2.4019,2.4047,2.4005,2.4007,2.3974,2.4006,2.4103,2.3957,2.3956,2.3983,2.4193,2.4225,2.4244,2.4073,2.4076,2.4078,2.4193,0,2.4073,2.4134,2.4091,2.416,2.4182,2.4117,2.4149,2.4142,2.4121,2.4138,2.4115,2.4134,2.4079,2.4079,2.4108,2.4085,2.4144,2.4076,2.41,2.4101,2.4102,2.4263,2.4298,2.4407,2.4207,2.421,2.4212,0,2.4221,2.4224,2.4294,2.427,2.4278,2.4308,2.4311,2.4327,2.4317,2.43,2.4302,2.426,2.4295,2.4231,2.4278,2.4233,2.424,2.423,2.4233,2.4233,2.4162,2.4265,2.4441,2.4457,2.4234,2.4232,2.4231,0,2.4351,2.4373,2.4417,2.4417,2.439,2.4412,2.4402,2.4389,2.4396,2.4399,2.4402,2.441,2.4414,2.4421,2.4382,2.4339,2.4433,2.4367,2.4419,2.442,2.4441,2.444,2.4618,2.4449,2.4448,2.4448,2.4448,0,2.4488,2.4533,2.4475,2.4502,2.4551,2.4502,2.4551,2.4534,2.4523,2.4545,2.449,2.4513,2.4461,2.4478,2.4449,2.4491,2.4494,2.448,2.4471,2.4484,2.4485,2.4487,2.4478,2.4452,2.4451,2.4451,2.445,0,2.4641,2.4604,2.4648,2.4619,2.4612,2.4649,2.4624,2.4648,2.4623,2.4652,2.4656,2.4618,2.4635,2.4598,2.461,2.459,2.465,2.463,2.4653,2.4646,2.47,2.4695,2.4884,2.4906,2.4724,2.4726,2.4728,0,2.473,2.4763,2.4737,2.4747,2.474,2.4758,2.4764,2.4718,2.4726,2.4717,2.4742,2.4754,2.4761,2.4792,2.4765,2.4774,2.4753,2.4819,2.4754,2.4766,2.4752,2.475,2.4752,2.4832,2.4834,2.4836,2.4838,0,2.4892,2.4871,2.4882,2.4886,2.4895,2.4896,2.4893,2.4906,2.4855,2.4868,2.4884,2.489,2.4902,2.4915,2.4917,2.4907,2.4864,2.4858,2.487,2.4883,2.4894,2.4887,2.4687,2.4854,2.4852,2.4851,2.485,2.4849,2.5014,2.5039,2.5024,2.5037,2.503,2.5029,2.5049,2.5026,2.5039,2.5044,2.5016,2.5038,2.5026,2.5025,2.5019,2.5036,2.5006,2.5025,2.5029,2.5034,2.5042,2.4893,2.5037,2.5036,2.5036,2.5035,2.5035,0,2.5171,2.5157,2.517,2.5167,2.5178,2.5135,2.513,2.5142,2.5161,2.5154,2.5162,2.518,2.5192,2.5166,2.5174,2.5192,2.5173,2.5196,2.5193,2.5191,2.5069,2.5057,2.5211,2.5211,2.5211,2.5211,2.5211,2.5211,2.5253,2.5293,2.5271,2.5306,2.5293,2.5313,2.5313,2.5312,2.5305,2.5327,2.5336,2.5319,2.5304,2.531,2.5319,2.5311,2.5316,2.5346,2.5331,2.5217,2.52,2.5183,2.5171,2.5348,2.5348,2.5451,2.5452,2.5453]}]]